Location: The Saddle
(36.8333°N, 80.3417°W)
Time: 06:42:53
(UTC-04:00)

Courier 1B - Pass Details

Date: 19 September 2024
Orbit: 962 x 1208 km, 28.3° (Epoch: 05 October)

Event Time Altitude Azimuth Distance (km) Brightness Sun altitude
Rises 16:30:36 0° 261° (W) 3,845 11.6 32.4°
Reaches altitude 10° 16:33:26 10° 254° (WSW) 2,927 11.5 31.9°
Maximum altitude 16:40:07 41° 187° (S) 1,585 9.4 30.7°
Drops below altitude 10° 16:47:09 10° 120° (ESE) 3,083 9.9 29.4°
Sets 16:50:12 0° 114° (ESE) 4,070 10.4 28.9°
